Location: El Gha�l�ss�ya Oumm Amo�ra
(16.2824°N, 9.3263°W)
Time: 01:47:22
(UTC+00:00)

Daily predictions for brighter satellites

Satellite Brightness Start Highest point End
(mag) Time Altitude Azimuth Time Altitude Azimuth Time Altitude Azimuth
Centaur AC-72 4.2 03:53:07 46° S 03:53:07 46° S 04:11:50 10° ESE
Cosmos 2333 Rocket 4.3 03:55:52 14° SE 03:59:08 22° ESE 04:03:30 10° NE
Cosmos 2360 Rocket 3.5 04:29:26 28° N 04:29:26 28° N 04:32:10 10° N
ADEOS 4.3 04:28:49 10° NNE 04:33:52 50° ESE 04:38:53 10° S
Intelsat 5-1 Rocket 4.1 04:39:33 26° S 04:39:33 26° S 04:47:17 10° SE
IUS-13 SRM-1 3.7 04:45:10 28° E 04:45:10 28° E 04:47:24 10° ESE
deb Chang Zheng 4 3.8 04:41:55 10° NNE 04:46:08 64° ESE 04:47:50 34° S
Hubble Space Telescope 1.3 04:49:41 50° NNE 04:49:41 50° NNE 04:53:07 10° ENE
Cosmos 1484 Rocket 3.6 04:47:22 10° NNE 04:51:15 51° E 04:55:07 10° S
GPS 2-18 Rocket1 3.4 04:51:42 63° NE 04:51:42 63° NE 04:55:12 10° E
Cosmos 1437 Rocket 2.8 04:53:24 66° NNE 04:53:24 66° NNE 04:56:43 10° N
Cosmos 2263 Rocket 2.1 04:50:34 10° NNW 04:56:12 69° WSW 05:01:50 10° S
Meteor 1-11 Rocket 3.5 04:52:30 10° N 04:58:07 78° W 05:03:39 10° S
Cosmos 546 4.4 04:59:24 84° SSW 04:59:24 84° SSW 05:03:09 10° SE
OAO 3 Rocket 4.1 05:00:45 32° NW 05:01:06 33° NNW 05:05:33 10° NE
SJ-6F 4.3 04:59:32 10° N 05:03:33 59° WNW 05:03:34 59° W
Meteor 1-31 Rocket 3.2 04:59:57 10° NNE 05:03:45 60° ESE 05:07:34 10° S
FALCON 9 DEB 2.9 05:05:38 75° NE 05:05:38 75° NE 05:08:34 10° NE
Cosmos 2242 Rocket 3.7 05:02:14 10° S 05:06:36 72° E 05:10:58 10° N
Intercosmos 25 3.7 05:02:09 10° S 05:08:13 73° W 05:12:07 10° N
Star 63D 3.6 05:12:25 58° NW 05:12:47 72° NNE 05:15:07 10° ESE
Cosmos 1536 2.7 05:08:58 10° NNW 05:12:57 61° W 05:16:56 10° S
FALCON 9 DEB 2.8 05:14:45 64° WNW 05:14:53 65° NW 05:18:02 10° NNE
Landsat 5 4.0 05:10:52 10° S 05:15:05 40° W 05:19:19 10° NNW
Cosmos 2219 Rocket 2.1 05:09:54 12° SSW 05:15:10 64° WNW 05:20:47 10° N
CZ-4B R/B 3.8 05:12:58 10° NNE 05:16:23 43° E 05:19:50 10° S
Cosmos 1733 Rocket 2.9 05:12:34 10° N 05:16:53 85° W 05:21:11 10° S
Delta 2 Rocket 4.3 05:19:08 21° NNW 05:19:08 21° NNW 05:21:47 10° NNE
CZ-2C R/B 3.9 05:16:31 10° NNW 05:19:21 20° WNW 05:19:21 20° WNW
CZ-4B R/B 4.0 05:16:05 10° N 05:20:33 74° WNW 05:25:00 10° SSW
Meteor 2-20 Rocket 4.4 05:16:45 10° SSW 05:22:49 63° W 05:28:53 10° N
Cosmos 1898 Rocket 3.6 05:18:01 10° NNW 05:23:07 52° WSW 05:28:16 10° S
ALOS 2.3 05:20:14 10° N 05:24:46 56° WNW 05:29:19 10° SSW
Cosmos 2173 Rocket 4.0 05:18:49 10° N 05:25:08 70° W 05:31:27 10° S
Cosmos 836 Rocket 4.4 05:20:01 10° SSW 05:25:11 75° WNW 05:30:22 10° N
H-2A R/B 2.8 05:22:29 10° SSW 05:26:13 29° W 05:30:02 10° NW
DELTA 4 R/B 3.5 05:15:32 14° WNW 05:27:44 59° N 05:31:33 10° E
ERS-2 2.2 05:25:41 10° S 05:29:13 49° WSW 05:32:45 10° NNW
Cosmos 858 Rocket 4.4 05:25:34 10° NNW 05:30:42 66° WSW 05:35:52 10° S
GPS 2-15 Rocket1 3.2 05:29:48 23° W 05:32:39 66° SSW 05:37:16 10° ESE
Cosmos 2237 Rocket 3.3 05:28:00 10° S 05:33:25 47° ESE 05:38:47 10° NNE
COSMOS 2428 2.9 05:28:23 10° SW 05:33:50 48° WNW 05:39:20 10° N
Cosmos 1980 4.5 05:30:15 10° S 05:35:43 55° ESE 05:41:14 10° NNE
Sylda 5 3.8 05:35:11 13° SW 05:37:52 29° SSE 05:43:52 10° ESE
H-2A R/B 4.2 05:38:50 10° NNE 05:43:01 40° E 05:47:14 10° S
Cosmos 2333 Rocket 3.0 05:38:12 10° SW 05:43:06 29° WNW 05:48:03 10° N
Cosmos 1937 Rocket 3.7 05:39:10 10° NNW 05:44:00 44° W 05:48:52 10° S
Aurora 2 Rocket 3.3 05:41:04 11° SW 05:44:34 45° SSE 05:49:26 10° E
Cosmos 1743 2.7 05:44:01 10° NNW 05:47:45 59° W 05:51:30 10° S
CZ-4B R/B 1.4 05:44:47 10° S 05:47:45 45° W 05:50:47 10° NNW
Okean 3 4.2 05:46:05 10° S 05:50:18 58° E 05:54:31 10° NNE
SWIFT 3.5 05:47:08 10° SW 05:51:06 37° SSE 05:55:03 10° E
GPS 2-12 Rocket1 3.6 05:50:09 10° WSW 05:54:29 49° SSE 05:58:46 10° E
Cosmos 2016 Rocket 4.0 05:50:36 10° NNW 05:56:30 56° W 06:02:28 10° SSW
Cosmos 1544 2.9 05:53:39 10° N 05:57:12 71° W 06:00:45 10° S
Meteor PRIRODA 3.9 05:54:14 10° N 05:57:42 45° WNW 06:01:09 10° SSW
COSMO-SKYMED 1 3.5 05:54:15 10° SSE 05:58:28 54° ENE 06:02:41 10° N
Cosmos 2061 Rocket 4.2 05:52:56 10° NNW 05:59:09 55° W 06:05:21 10° SSW
Delta 202 3.7 05:56:32 10° W 06:02:03 75° N 06:07:26 10° E
ADEOS Rocket 3.8 05:57:49 10° SSW 06:04:22 37° WSW 06:10:24 10° NW
Cosmos 1242 Rocket 2.5 06:00:46 10° S 06:04:24 80° W 06:08:04 10° N
SAR-Lupe-4 4.1 06:02:35 10° SSW 06:05:53 36° W 06:09:12 10° NNW
USA 281 3.3 06:00:03 10° NNE 06:06:38 86° ESE 06:13:12 10° SSW
Cosmos 2233 Rocket 4.2 06:00:41 10° N 06:06:49 82° E 06:12:59 10° S
NOSS 3-4 (A) 4.1 06:06:29 10° NNW 06:14:11 84° WSW 06:22:24 10° SSE
NOSS 3-4 (C) 4.1 06:06:36 10° NNW 06:14:17 84° WSW 06:22:31 10° SSE
